Location: Maddington
(51.2000°N, 1.9167°W)
Time: 17:02:07
(UTC+00:00)

Cosmos 1125 Rocket - Pass Details

Date: 18 June 2021
Orbit: 757 x 780 km, 74.0° (Epoch: 25 July)

Event Time Altitude Azimuth Distance (km) Brightness Sun altitude
Rises 02:15:53 0° 337° (NNW) 3,242 7.3 -10.3°
Reaches altitude 10° 02:18:18 10° 341° (NNW) 2,315 6.6 -10.1°
Maximum altitude 02:23:30 59° 61° (ENE) 890 4.2 -9.7°
Drops below altitude 10° 02:28:41 10° 141° (SE) 2,316 5.8 -9.3°
Sets 02:31:06 0° 145° (SE) 3,242 6.5 -9.1°
